Home   Weather   Bambari   Past weeks

Flag for Central African Republic Past Weather in Bambari, Central African Republic — Yesterday and Last 2 Weeks

Now
72 °F

Clear.


Feels Like: 69 °F
Forecast: 72 / 94 °F
Wind: 5 mph from Northwest

Location: Bangui Airport

Current Time: Jan 24, 2017 at 4:15:08 am

Latest Report: Jan 24, 2017 at 3:00 am


Visibility: 5 mi

Pressure: 29.80 "Hg

Humidity: 88%

Dew Point: 68 °F

Location of BambariLocation

Past Weather in Bambari — Graph

°F

Bambari Temperature Yesterday

Maximum temperature yesterday: 91 °F (at 3:00 pm)
Minimum temperature yesterday: 72 °F (at 1:00 am)
Average temperature yesterday: 80 °F

High & Low Weather Summary for the Past Weeks

 TemperatureHumidityPressure
High97 °F (Jan 15, 2:00 pm)100% (Jan 9, 6:00 am)29.92 "Hg (Jan 9, 6:00 am)
Low63 °F (Jan 10, 5:00 am)17% (Jan 11, 2:00 pm)29.65 "Hg (Jan 16, 4:00 pm)
Average79 °F73%29.79 "Hg
* Reported Jan 9 3:00 am — Jan 24 3:00 am, Bambari, Weather by CustomWeather, © 2017

Note: Actual official high and low records may vary slightly from our data, if they occured in-between our weather recording intervals... More about our weather records

Advertising

Bambari Weather History for the Previous 24 Hours

Scroll right to see more
 ConditionsComfort  
Time TempWeatherWind HumidityBarometerVisibility
3:00 am
Tue, Jan 24
72 °FClear.5 mph88%29.80 "Hg5 mi
2:00 am73 °FClear.2 mph89%29.80 "Hg5 mi
1:00 am75 °FClear.2 mph94%29.80 "Hg5 mi
12:00 am75 °FClear.3 mph94%29.83 "Hg5 mi
11:00 pm
Mon, Jan 23
77 °FClear.2 mph89%29.83 "Hg5 mi
9:00 pm81 °FThunderstorms. Passing clouds.9 mph84%29.83 "Hg5 mi
8:00 pm82 °FThunderstorms. Passing clouds.9 mph84%29.80 "Hg5 mi
7:00 pm84 °FPassing clouds.10 mph79%29.80 "Hg5 mi
6:00 pm84 °FPassing clouds.9 mph79%29.77 "HgN/A
5:00 pm88 °FPassing clouds.10 mph70%29.74 "HgN/A
4:00 pm90 °FScattered clouds.9 mph67%29.71 "HgN/A
3:00 pm91 °FPartly sunny.6 mph63%29.74 "HgN/A
2:00 pm90 °FPartly sunny.7 mph67%29.77 "HgN/A
12:00 pm88 °FPartly sunny.8 mph70%29.83 "HgN/A
11:00 am84 °FPartly sunny.12 mph74%29.86 "HgN/A
10:00 am84 °FPartly sunny.9 mph74%29.86 "HgN/A
9:00 am81 °FScattered clouds.8 mph84%29.89 "HgN/A
8:00 am77 °FPassing clouds.7 mph94%29.89 "HgN/A
7:00 am73 °FPassing clouds.2 mph100%29.86 "Hg4 mi
6:00 am72 °FClear.5 mph100%29.80 "Hg5 mi
5:00 am72 °FClear.2 mph100%29.77 "Hg5 mi
4:00 am72 °FClear.2 mph100%29.77 "Hg5 mi
Weather by CustomWeather, © 2017

See weather overviewHow to use our weather pages